TimeCDT,TemperatureF,Dew PointF,Humidity,Sea Level PressureIn,VisibilityMPH,Wind Direction,Wind SpeedMPH,Gust SpeedMPH,PrecipitationIn,Events,Conditions,WindDirDegrees,DateUTC
12:53 AM,57.0,53.1,87,29.99,10.0,West,4.6,-,0.00,,Overcast,270,2013-10-17 05:53:00
1:53 AM,57.0,53.1,87,29.98,10.0,West,3.5,-,N/A,,Overcast,280,2013-10-17 06:53:00
2:53 AM,55.9,54.0,93,29.98,5.0,NW,6.9,-,0.02,Rain,Rain,320,2013-10-17 07:53:00
3:53 AM,53.1,52.0,96,29.97,10.0,North,4.6,-,0.02,,Overcast,350,2013-10-17 08:53:00
4:39 AM,53.6,51.8,94,29.98,10.0,North,4.6,-,N/A,,Overcast,360,2013-10-17 09:39:00
4:53 AM,53.1,51.1,93,29.99,10.0,North,3.5,-,N/A,,Overcast,10,2013-10-17 09:53:00
5:08 AM,53.6,51.8,94,29.99,10.0,North,3.5,-,N/A,,Overcast,360,2013-10-17 10:08:00
5:53 AM,52.0,51.1,97,29.99,9.0,NNE,4.6,-,0.01,Rain,Light Rain,30,2013-10-17 10:53:00
6:53 AM,52.0,50.0,93,30.00,10.0,NNE,5.8,-,0.00,,Overcast,30,2013-10-17 11:53:00
7:53 AM,51.1,50.0,96,30.01,10.0,Calm,Calm,-,N/A,,Partly Cloudy,0,2013-10-17 12:53:00
8:31 AM,53.6,51.8,94,30.03,10.0,NNW,3.5,-,N/A,,Scattered Clouds,340,2013-10-17 13:31:00
8:40 AM,53.6,51.8,94,30.04,10.0,North,3.5,-,N/A,,Mostly Cloudy,10,2013-10-17 13:40:00
8:53 AM,53.1,50.0,89,30.04,10.0,Calm,Calm,-,N/A,,Overcast,0,2013-10-17 13:53:00
9:53 AM,53.1,48.9,86,30.05,10.0,Calm,Calm,-,N/A,,Overcast,0,2013-10-17 14:53:00
10:05 AM,53.6,50.0,88,30.06,10.0,Calm,Calm,-,N/A,,Overcast,0,2013-10-17 15:05:00
10:53 AM,55.9,50.0,80,30.05,10.0,Calm,Calm,-,N/A,,Overcast,0,2013-10-17 15:53:00
11:13 AM,57.2,50.0,77,30.05,10.0,West,4.6,-,N/A,,Mostly Cloudy,280,2013-10-17 16:13:00
11:33 AM,57.2,50.0,77,30.05,10.0,West,6.9,-,N/A,,Scattered Clouds,260,2013-10-17 16:33:00
11:40 AM,59.0,50.0,72,30.05,10.0,West,5.8,-,N/A,,Mostly Cloudy,280,2013-10-17 16:40:00
11:53 AM,59.0,51.1,75,30.04,10.0,Variable,4.6,-,N/A,,Scattered Clouds,0,2013-10-17 16:53:00
12:08 PM,60.8,50.0,68,30.04,10.0,NW,6.9,-,N/A,,Mostly Cloudy,310,2013-10-17 17:08:00
12:18 PM,59.0,50.0,72,30.04,10.0,WNW,6.9,-,N/A,,Scattered Clouds,300,2013-10-17 17:18:00
12:53 PM,60.1,48.9,67,30.03,10.0,Variable,3.5,-,N/A,,Scattered Clouds,0,2013-10-17 17:53:00
1:53 PM,63.0,48.0,58,30.00,10.0,Calm,Calm,-,N/A,,Mostly Cloudy,0,2013-10-17 18:53:00
2:53 PM,64.9,46.9,52,29.99,10.0,WNW,6.9,-,N/A,,Scattered Clouds,290,2013-10-17 19:53:00
3:53 PM,64.9,48.0,54,29.99,10.0,NNW,4.6,-,N/A,,Overcast,340,2013-10-17 20:53:00
4:53 PM,-9999,-9999,N/A,29.99,10.0,Calm,Calm,-,N/A,,Clear,0,2013-10-17 21:53:00
5:53 PM,-9999,-9999,N/A,29.98,10.0,Calm,Calm,-,N/A,,Clear,0,2013-10-17 22:53:00
6:53 PM,-9999,-9999,N/A,29.98,10.0,Calm,Calm,-,N/A,,Clear,0,2013-10-17 23:53:00
7:53 PM,-9999,-9999,N/A,30.00,10.0,Calm,Calm,-,N/A,,Clear,0,2013-10-18 00:53:00
8:53 PM,-9999,-9999,N/A,30.01,10.0,Calm,Calm,-,N/A,,Clear,0,2013-10-18 01:53:00
9:53 PM,-9999,-9999,N/A,30.01,10.0,Calm,Calm,-,N/A,,Clear,0,2013-10-18 02:53:00
10:53 PM,-9999,-9999,N/A,30.02,10.0,Calm,Calm,-,N/A,,Clear,0,2013-10-18 03:53:00
11:53 PM,-9999,-9999,N/A,30.02,10.0,Calm,Calm,-,N/A,,Clear,0,2013-10-18 04:53:00